TimeCEST,TemperatureF,Dew PointF,Humidity,Sea Level PressureIn,VisibilityMPH,Wind Direction,Wind SpeedMPH,Gust SpeedMPH,PrecipitationIn,Events,Conditions,WindDirDegrees,DateUTC
12:25 AM,60.8,59.0,94,29.83,6.2,South,9.2,-,N/A,,Overcast,180,2013-10-25 22:25:00
12:55 AM,60.8,59.0,94,29.83,6.2,South,8.1,-,N/A,,Overcast,180,2013-10-25 22:55:00
1:25 AM,60.8,59.0,94,29.83,6.2,South,10.4,-,N/A,,Overcast,190,2013-10-25 23:25:00
1:55 AM,60.8,59.0,94,29.83,6.2,South,8.1,-,N/A,,Overcast,190,2013-10-25 23:55:00
2:00 AM,61,59,90,29.85,10,South,8.9,,,,Partly Cloudy,190,2013-10-26 00:00:00
2:25 AM,60.8,59.0,94,29.83,6.2,South,8.1,-,N/A,,Overcast,190,2013-10-26 00:25:00
2:55 AM,60.8,59.0,94,29.83,6.2,South,9.2,-,N/A,,Overcast,190,2013-10-26 00:55:00
3:25 AM,60.8,59.0,94,29.83,6.2,SSW,8.1,-,N/A,,Overcast,200,2013-10-26 01:25:00
3:55 AM,60.8,59.0,94,29.83,6.2,South,8.1,-,N/A,,Overcast,190,2013-10-26 01:55:00
4:25 AM,59.0,59.0,100,29.83,6.2,South,6.9,-,N/A,,Overcast,180,2013-10-26 02:25:00
4:35 AM,59.0,59.0,100,29.83,6.2,South,8.1,-,N/A,,Overcast,190,2013-10-26 02:35:00
4:46 AM,59.0,59.0,100,29.83,6.2,South,8.1,-,N/A,,Overcast,190,2013-10-26 02:46:00
4:55 AM,59.0,59.0,100,29.83,6.2,South,8.1,-,N/A,,Overcast,190,2013-10-26 02:55:00
4:59 AM,59.0,59.0,100,29.83,6.2,South,8.1,-,N/A,,Overcast,190,2013-10-26 02:59:00
5:00 AM,60,58,91,29.84,9,South,8.9,,,,Overcast,190,2013-10-26 03:00:00
5:03 AM,59.0,59.0,100,29.83,6.2,South,8.1,-,N/A,,Overcast,190,2013-10-26 03:03:00
5:16 AM,59.0,59.0,100,29.83,6.2,South,8.1,-,N/A,,Overcast,190,2013-10-26 03:16:00
5:20 AM,59.0,59.0,100,29.83,6.2,South,8.1,-,N/A,,Mostly Cloudy,190,2013-10-26 03:20:00
5:25 AM,59.0,59.0,100,29.83,6.2,South,9.2,-,N/A,,Overcast,190,2013-10-26 03:25:00
5:37 AM,59.0,57.2,94,29.83,6.2,South,9.2,-,N/A,,Overcast,190,2013-10-26 03:37:00
5:38 AM,59.0,57.2,94,29.83,6.2,South,10.4,-,N/A,,Overcast,190,2013-10-26 03:38:00
5:46 AM,59.0,57.2,94,29.83,6.2,South,9.2,-,N/A,,Overcast,190,2013-10-26 03:46:00
5:50 AM,59.0,57.2,94,29.83,6.2,South,9.2,-,N/A,,Mostly Cloudy,190,2013-10-26 03:50:00
5:55 AM,59.0,57.2,94,29.83,6.2,South,9.2,-,N/A,,Mostly Cloudy,190,2013-10-26 03:55:00
5:59 AM,59.0,57.2,94,29.83,6.2,South,9.2,-,N/A,,Mostly Cloudy,190,2013-10-26 03:59:00
6:06 AM,59.0,57.2,94,29.83,6.2,South,9.2,-,N/A,,Mostly Cloudy,190,2013-10-26 04:06:00
6:16 AM,59.0,57.2,94,29.83,6.2,South,9.2,-,N/A,,Overcast,190,2013-10-26 04:16:00
6:25 AM,59.0,57.2,94,29.83,6.2,South,9.2,-,N/A,,Overcast,190,2013-10-26 04:25:00
6:42 AM,59.0,57.2,94,29.83,6.2,SSW,9.2,-,N/A,,Mostly Cloudy,200,2013-10-26 04:42:00
6:46 AM,59.0,57.2,94,29.83,6.2,SSW,9.2,-,N/A,,Overcast,200,2013-10-26 04:46:00
6:55 AM,59.0,57.2,94,29.83,6.2,South,9.2,-,N/A,,Overcast,190,2013-10-26 04:55:00
7:25 AM,59.0,57.2,94,29.83,6.2,South,9.2,-,N/A,,Mostly Cloudy,190,2013-10-26 05:25:00
7:26 AM,59.0,57.2,94,29.83,6.2,South,10.4,-,N/A,,Mostly Cloudy,190,2013-10-26 05:26:00
7:27 AM,59.0,57.2,94,29.83,6.2,South,9.2,-,N/A,,Mostly Cloudy,190,2013-10-26 05:27:00
7:37 AM,59.0,57.2,94,29.83,6.2,South,10.4,-,N/A,,Mostly Cloudy,190,2013-10-26 05:37:00
7:41 AM,59.0,57.2,94,29.83,6.2,SSW,10.4,-,N/A,,Mostly Cloudy,200,2013-10-26 05:41:00
7:47 AM,59.0,57.2,94,29.83,6.2,SSW,10.4,-,N/A,,Mostly Cloudy,200,2013-10-26 05:47:00
7:55 AM,59.0,57.2,94,29.83,6.2,SSW,9.2,-,N/A,,Mostly Cloudy,200,2013-10-26 05:55:00
8:08 AM,59.0,57.2,94,29.83,6.2,South,9.2,-,N/A,,Mostly Cloudy,190,2013-10-26 06:08:00
8:25 AM,59.0,57.2,94,29.83,6.2,SSW,10.4,-,N/A,,Mostly Cloudy,200,2013-10-26 06:25:00
8:35 AM,59.0,57.2,94,29.83,6.2,SSW,10.4,-,N/A,,Mostly Cloudy,200,2013-10-26 06:35:00
8:36 AM,59.0,57.2,94,29.83,6.2,SSW,10.4,-,N/A,,Mostly Cloudy,200,2013-10-26 06:36:00
8:45 AM,60.8,57.2,88,29.83,6.2,SSW,11.5,-,N/A,,Overcast,200,2013-10-26 06:45:00
8:55 AM,59.0,57.2,94,29.83,6.2,SSW,11.5,-,N/A,,Mostly Cloudy,200,2013-10-26 06:55:00
9:02 AM,60.8,57.2,88,29.83,6.2,SSW,10.4,-,N/A,,Mostly Cloudy,200,2013-10-26 07:02:00
9:06 AM,60.8,57.2,88,29.83,6.2,SSW,10.4,-,N/A,,Overcast,200,2013-10-26 07:06:00
9:10 AM,60.8,57.2,88,29.83,6.2,SSW,10.4,-,N/A,,Overcast,200,2013-10-26 07:10:00
9:25 AM,60.8,57.2,88,29.83,6.2,South,9.2,-,N/A,,Overcast,190,2013-10-26 07:25:00
9:55 AM,60.8,59.0,94,29.83,6.2,SSW,10.4,-,N/A,,Mostly Cloudy,200,2013-10-26 07:55:00
10:11 AM,62.6,59.0,88,29.83,6.2,South,10.4,-,N/A,,Mostly Cloudy,190,2013-10-26 08:11:00
10:16 AM,62.6,59.0,88,29.83,6.2,SSW,10.4,-,N/A,,Mostly Cloudy,200,2013-10-26 08:16:00
10:25 AM,62.6,59.0,88,29.83,6.2,SSW,10.4,-,N/A,,Scattered Clouds,200,2013-10-26 08:25:00
10:29 AM,62.6,59.0,88,29.83,6.2,SSW,10.4,-,N/A,,Mostly Cloudy,200,2013-10-26 08:29:00
10:33 AM,62.6,59.0,88,29.83,6.2,SSW,10.4,-,N/A,,Mostly Cloudy,200,2013-10-26 08:33:00
10:55 AM,62.6,59.0,88,29.86,6.2,SSW,12.7,-,N/A,,Mostly Cloudy,210,2013-10-26 08:55:00
11:00 AM,63,58,80,29.86,22,SSW,13.4,,,,Partly Cloudy,210,2013-10-26 09:00:00
11:02 AM,62.6,59.0,88,29.86,6.2,SSW,12.7,-,N/A,,Overcast,210,2013-10-26 09:02:00
11:05 AM,64.4,59.0,83,29.86,6.2,SSW,12.7,-,N/A,,Mostly Cloudy,210,2013-10-26 09:05:00
11:16 AM,62.6,57.2,82,29.86,6.2,SSW,16.1,-,N/A,,Mostly Cloudy,210,2013-10-26 09:16:00
11:25 AM,62.6,57.2,82,29.86,6.2,SSW,15.0,-,N/A,,Mostly Cloudy,210,2013-10-26 09:25:00
11:55 AM,64.4,59.0,83,29.86,6.2,SW,17.3,-,N/A,,Mostly Cloudy,220,2013-10-26 09:55:00
12:17 PM,64.4,57.2,77,29.83,6.2,SW,17.3,-,N/A,,Mostly Cloudy,220,2013-10-26 10:17:00
12:25 PM,66.2,57.2,73,29.83,6.2,SSW,16.1,-,N/A,,Scattered Clouds,210,2013-10-26 10:25:00
12:37 PM,66.2,57.2,73,29.83,6.2,SSW,15.0,-,N/A,,Mostly Cloudy,210,2013-10-26 10:37:00
12:38 PM,66.2,57.2,73,29.83,6.2,SSW,17.3,-,N/A,,Mostly Cloudy,210,2013-10-26 10:38:00
12:40 PM,66.2,57.2,73,29.83,6.2,SSW,17.3,-,N/A,,Mostly Cloudy,210,2013-10-26 10:40:00
12:55 PM,66.2,57.2,73,29.83,6.2,SSW,17.3,-,N/A,,Mostly Cloudy,210,2013-10-26 10:55:00
1:25 PM,68.0,55.4,64,29.83,6.2,SSW,19.6,-,N/A,,Overcast,210,2013-10-26 11:25:00
1:55 PM,68.0,55.4,64,29.83,6.2,SSW,16.1,-,N/A,,Mostly Cloudy,200,2013-10-26 11:55:00
2:00 PM,67,56,58,29.84,25,SSW,15.7,,,,Partly Cloudy,200,2013-10-26 12:00:00
2:25 PM,66.2,55.4,68,29.80,6.2,SSW,13.8,-,N/A,,Overcast,200,2013-10-26 12:25:00
2:55 PM,68.0,55.4,64,29.80,6.2,SSW,16.1,-,N/A,,Overcast,200,2013-10-26 12:55:00
3:10 PM,68.0,55.4,64,29.80,6.2,SW,12.7,-,N/A,,Overcast,220,2013-10-26 13:10:00
3:25 PM,68.0,57.2,68,29.80,6.2,SSW,9.2,-,N/A,,Overcast,200,2013-10-26 13:25:00
3:55 PM,68.0,55.4,64,29.80,6.2,SSW,15.0,-,N/A,,Overcast,200,2013-10-26 13:55:00
4:25 PM,66.2,55.4,68,29.80,6.2,SSW,11.5,-,N/A,,Overcast,200,2013-10-26 14:25:00
4:55 PM,68.0,55.4,64,29.77,6.2,SSW,10.4,-,N/A,,Overcast,200,2013-10-26 14:55:00
5:00 PM,67,55,57,29.80,28,SSW,11.2,,,,Overcast,210,2013-10-26 15:00:00
5:25 PM,66.2,55.4,68,29.77,6.2,SSW,6.9,-,N/A,,Partly Cloudy,210,2013-10-26 15:25:00
5:55 PM,64.4,55.4,73,29.80,6.2,SSW,8.1,-,N/A,,Partly Cloudy,200,2013-10-26 15:55:00
6:25 PM,64.4,55.4,73,29.80,6.2,SSW,11.5,-,N/A,,Scattered Clouds,200,2013-10-26 16:25:00
6:55 PM,62.6,55.4,77,29.80,6.2,SSW,9.2,-,N/A,,Partly Cloudy,200,2013-10-26 16:55:00
7:25 PM,62.6,57.2,82,29.80,6.2,South,10.4,-,N/A,,Unknown,190,2013-10-26 17:25:00
7:55 PM,62.6,57.2,82,29.80,6.2,South,9.2,-,N/A,,Unknown,190,2013-10-26 17:55:00
8:00 PM,62,56,76,29.80,28,South,8.9,,,,Partly Cloudy,190,2013-10-26 18:00:00
8:25 PM,60.8,55.4,82,29.77,6.2,South,9.2,-,N/A,,Unknown,190,2013-10-26 18:25:00
8:55 PM,60.8,55.4,82,29.77,6.2,SSW,10.4,-,N/A,,Unknown,200,2013-10-26 18:55:00
9:25 PM,60.8,57.2,88,29.77,6.2,South,9.2,-,N/A,,Unknown,190,2013-10-26 19:25:00
9:55 PM,60.8,57.2,88,29.77,6.2,South,10.4,-,N/A,,Unknown,190,2013-10-26 19:55:00
10:25 PM,60.8,57.2,88,29.77,6.2,South,10.4,-,N/A,,Unknown,190,2013-10-26 20:25:00
10:55 PM,60.8,57.2,88,29.74,6.2,South,10.4,-,N/A,,Unknown,190,2013-10-26 20:55:00
11:00 PM,60,56,83,29.77,28,South,11.2,,,,,190,2013-10-26 21:00:00
11:25 PM,60.8,57.2,88,29.74,6.2,South,10.4,-,N/A,,Unknown,190,2013-10-26 21:25:00
11:55 PM,60.8,57.2,88,29.74,6.2,South,9.2,-,N/A,,Unknown,190,2013-10-26 21:55:00